Content
SEND FEEDBACK

Daily
Averages
Monthly
Summary
France

OISSEL, FRANCE


Home > Europe > France
Elevation: 515 feet     Latitude: 49 22N     Longitude: 001 10E

WEATHER
 
SELECT A DAY
Number of Records: 173,411;   Date Range: 7/1/96 - 8/10/14
 
SHARE

PRINT THIS DATA

[ ← Previous Day ]
WEATHER ALMANAC - APRIL 8, 2013
[ Next Day → ]
[ °C ]   °F
Weather ElementAverageHighLow
Temperature42.2 °F46.4 °F (3:30 pm)37.4 °F (6:00 am)
Dewpoint32.8 °F37.4 °F (8:00 pm)30 °F (2:00 am)
Humidity68.8 %87 % (10:00 pm)54 % (2:00 pm)
Barometer29.65 in29.83 in (12:30 am)29.56 in (7:00 pm)
Wind Speed5.6 mph9.2 mph (1:00 pm)
Weather ElementAverage
Visibility6.3 mi
Wind DirectionESE (112.5 °)

Weather ElementTotal
Precipitation---
Heating Degree Days23.1 (Base 65)
Averaged from 51 records on April 8, 2013
WEATHER CONDITIONS BREAKOUT
WIND DIRECTION BREAKOUT
WEATHER BY HOUR - APRIL 8, 2013
[ °C ]   °F
Local TimeTemperatureDewpointHumidityBarometerVisibilityWind DirectionWind SpeedGust SpeedPrecipitationEventsConditions
12:30 AM41.0 °F30.2 °F65 %29.83 in6.2 miEast (100°)8.1 mph
1:00 AM41.0 °F30.2 °F65 %29.83 in6.2 miEast (100°)8.1 mph
1:30 AM41.0 °F30.2 °F65 %29.80 in6.2 miEast (100°)6.9 mph
2:00 AM40.0 °F30.0 °F58 %29.82 in10.0 miEast (100°)6.9 mphClear
2:00 AM41.0 °F30.2 °F65 %29.80 in6.2 miEast (100°)6.9 mph
2:30 AM39.2 °F30.2 °F70 %29.77 in6.2 miEast (90°)6.9 mph
3:00 AM39.2 °F30.2 °F70 %29.74 in6.2 miEast (90°)5.8 mph
3:30 AM39.2 °F30.2 °F70 %29.74 in6.2 miEast (80°)5.8 mph
4:00 AM39.2 °F30.2 °F70 %29.74 in6.2 miEast (80°)5.8 mph
4:30 AM39.2 °F30.2 °F70 %29.71 in6.2 miEast (90°)5.8 mph
5:00 AM39.2 °F30.2 °F70 %29.71 in6.2 miEast (100°)5.8 mph
5:30 AM39.2 °F30.2 °F70 %29.68 in6.2 miEast (100°)6.9 mph
6:00 AM37.4 °F30.2 °F75 %29.68 in6.2 miEast (90°)5.8 mph
6:30 AM39.2 °F30.2 °F70 %29.68 in6.2 miEast (100°)6.9 mph
7:00 AM39.2 °F30.2 °F70 %29.65 in6.2 miEast (100°)8.1 mph
7:30 AM39.2 °F30.2 °F70 %29.65 in6.2 miEast (90°)8.1 mph
8:00 AM39.0 °F31.0 °F63 %29.69 in9.0 miESE (110°)6.9 mphOvercast
8:00 AM39.2 °F30.2 °F70 %29.65 in6.2 miESE (110°)6.9 mph
8:30 AM39.2 °F30.2 °F70 %29.65 in6.2 miESE (110°)8.1 mph
9:00 AM41.0 °F30.2 °F65 %29.65 in6.2 miESE (120°)8.1 mph
9:30 AM41.0 °F32.0 °F70 %29.65 in6.2 miSE (130°)8.1 mphRainLight Rain
10:00 AM41.0 °F33.8 °F76 %29.65 in5.6 miSE (130°)6.9 mphRainLight Rain
10:30 AM42.8 °F35.6 °F76 %29.65 in6.2 miVariable2.3 mphOvercast
11:00 AM42.8 °F33.8 °F70 %29.65 in6.2 miVariable2.3 mphOvercast
11:30 AM42.8 °F33.8 °F70 %29.65 in6.2 miVariable1.2 mph
12:00 PM44.6 °F33.8 °F66 %29.62 in6.2 miVariable2.3 mphScattered Clouds
12:30 PM44.6 °F32.0 °F61 %29.62 in6.2 miSE (140°)5.8 mphMostly Cloudy
1:00 PM44.6 °F32.0 °F61 %29.62 in6.2 miSouth (180°)9.2 mphMostly Cloudy
1:30 PM44.6 °F33.8 °F66 %29.62 in6.2 miSouth (170°)5.8 mphOvercast
2:00 PM45.0 °F34.0 °F54 %29.65 in7.0 miSSE (150°)4.6 mphPartly Cloudy
2:00 PM44.6 °F33.8 °F66 %29.62 in6.2 miSSE (150°)4.6 mphMostly Cloudy
2:30 PM44.6 °F33.8 °F66 %29.62 in6.2 miSE (130°)5.8 mphOvercast
3:00 PM44.6 °F35.6 °F71 %29.62 in6.2 miSE (140°)5.8 mphOvercast
3:30 PM46.4 °F33.8 °F62 %29.59 in6.2 miSE (140°)5.8 mphOvercast
4:00 PM46.4 °F33.8 °F62 %29.59 in6.2 miSSE (150°)4.6 mphOvercast
4:30 PM46.4 °F33.8 °F62 %29.59 in6.2 miSouth (170°)6.9 mphOvercast
5:00 PM46.4 °F33.8 °F62 %29.59 in6.2 miSouth (170°)4.6 mphOvercast
5:30 PM46.4 °F35.6 °F66 %29.59 in6.2 miSSE (150°)3.5 mphOvercast
6:00 PM46.4 °F33.8 °F62 %29.59 in6.2 miVariable3.5 mphOvercast
6:30 PM46.4 °F33.8 °F62 %29.59 in6.2 miSouth (180°)3.5 mphOvercast
7:00 PM46.4 °F35.6 °F66 %29.56 in6.2 miSE (140°)4.6 mphOvercast
7:30 PM46.4 °F35.6 °F66 %29.59 in6.2 miSSE (150°)4.6 mphMostly Cloudy
8:00 PM46.0 °F37.0 °F60 %29.60 in7.0 miSSE (150°)3.5 mphClear
8:00 PM46.4 °F37.4 °F71 %29.59 in6.2 miSE (140°)3.5 mphOvercast
8:30 PM44.6 °F35.6 °F71 %29.56 in6.2 miESE (120°)4.6 mph
9:00 PM41.0 °F33.8 °F76 %29.59 in5.6 miESE (120°)5.8 mph
9:30 PM39.2 °F33.8 °F81 %29.59 in5.0 miSE (140°)4.6 mph
10:00 PM37.4 °F33.8 °F87 %29.59 in5.0 miSE (130°)5.8 mph
10:30 PM39.2 °F35.6 °F87 %29.56 in6.2 miSE (130°)4.6 mph
11:00 PM39.2 °F35.6 °F87 %29.56 in6.2 miSE (130°)5.8 mph
11:30 PM41.0 °F37.4 °F87 %29.56 in6.2 miSSE (150°)4.6 mph
Hourly data recorded from LFOP, located miles away from Oissel, France







STORIES FROM OUR PARTNERS